Time,TemperatureF,DewpointF,PressureIn,WindDirection,WindDirectionDegrees,WindSpeedMPH,WindSpeedGustMPH,Humidity,HourlyPrecipIn,Conditions,Clouds,dailyrainin,SolarRadiationWatts/m^2,SoftwareType,DateUTC
2013-07-05 00:02:00,75.0,52.0,-100.00,NNW,347,0.0,0.0,45,0.00,,,0.00,0.000000,,2013-07-05 07:02:00,
2013-07-05 00:23:00,73.0,52.0,-100.00,NW,321,0.0,0.0,48,0.00,,,0.00,0.000000,,2013-07-05 07:23:00,
2013-07-05 00:34:00,73.0,52.0,-100.00,NW,321,0.0,0.0,48,0.00,,,0.00,0.000000,,2013-07-05 07:34:00,
2013-07-05 00:43:00,73.0,52.0,-100.00,NW,321,0.0,0.0,48,0.00,,,0.00,0.000000,,2013-07-05 07:43:00,
2013-07-05 00:53:00,73.0,52.0,-100.00,NW,321,0.0,0.0,48,0.00,,,0.00,0.000000,,2013-07-05 07:53:00,
2013-07-05 01:02:00,73.0,52.0,-100.00,NW,321,0.0,0.0,48,0.00,,,0.00,0.000000,,2013-07-05 08:02:00,
2013-07-05 01:03:00,73.0,52.0,-100.00,NNW,346,0.0,0.0,47,0.00,,,0.00,0.000000,,2013-07-05 08:03:00,
2013-07-05 01:23:00,73.0,52.0,-100.00,NNW,346,0.0,0.0,47,0.00,,,0.00,0.000000,,2013-07-05 08:23:00,
2013-07-05 01:33:00,73.0,52.0,-100.00,NNW,346,0.0,0.0,47,0.00,,,0.00,0.000000,,2013-07-05 08:33:00,
2013-07-05 01:44:00,73.0,52.0,-100.00,NNW,346,0.0,0.0,47,0.00,,,0.00,0.000000,,2013-07-05 08:44:00,
2013-07-05 01:55:00,73.0,52.0,-100.00,NNW,346,0.0,0.0,47,0.00,,,0.00,0.000000,,2013-07-05 08:55:00,
2013-07-05 02:03:00,73.0,53.0,-100.00,North,353,0.0,0.0,49,0.00,,,0.00,0.000000,,2013-07-05 09:03:00,
2013-07-05 02:28:00,73.0,53.0,-100.00,North,353,0.0,0.0,49,0.00,,,0.00,0.000000,,2013-07-05 09:28:00,
2013-07-05 02:37:00,73.0,53.0,-100.00,North,353,0.0,0.0,49,0.00,,,0.00,0.000000,,2013-07-05 09:37:00,
2013-07-05 02:48:00,73.0,53.0,-100.00,North,353,0.0,0.0,49,0.00,,,0.00,0.000000,,2013-07-05 09:48:00,
2013-07-05 03:38:00,71.0,51.0,-100.00,North,356,0.0,0.0,50,0.00,,,0.00,0.000000,,2013-07-05 10:38:00,
2013-07-05 03:47:00,71.0,51.0,-100.00,North,356,0.0,0.0,50,0.00,,,0.00,0.000000,,2013-07-05 10:47:00,
2013-07-05 03:57:00,71.0,51.0,-100.00,North,356,0.0,0.0,50,0.00,,,0.00,0.000000,,2013-07-05 10:57:00,
2013-07-05 04:03:00,71.0,52.0,-100.00,North,358,0.0,0.0,52,0.00,,,0.00,0.000000,,2013-07-05 11:03:00,
2013-07-05 04:25:00,71.0,52.0,-100.00,North,358,0.0,0.0,52,0.00,,,0.00,0.000000,,2013-07-05 11:25:00,
2013-07-05 04:38:00,71.0,52.0,-100.00,North,358,0.0,0.0,52,0.00,,,0.00,0.000000,,2013-07-05 11:38:00,
2013-07-05 04:49:00,71.0,52.0,-100.00,North,358,0.0,0.0,52,0.00,,,0.00,0.000000,,2013-07-05 11:49:00,
2013-07-05 04:58:00,71.0,52.0,-100.00,North,358,0.0,0.0,52,0.00,,,0.00,0.000000,,2013-07-05 11:58:00,
2013-07-05 05:26:00,71.0,52.0,-100.00,North,355,0.0,0.0,52,0.00,,,0.00,0.000000,,2013-07-05 12:26:00,
2013-07-05 05:37:00,71.0,52.0,-100.00,North,355,0.0,0.0,52,0.00,,,0.00,0.000000,,2013-07-05 12:37:00,
2013-07-05 05:49:00,71.0,52.0,-100.00,North,355,0.0,0.0,52,0.00,,,0.00,0.000000,,2013-07-05 12:49:00,
2013-07-05 05:58:00,71.0,52.0,-100.00,North,355,0.0,0.0,52,0.00,,,0.00,0.000000,,2013-07-05 12:58:00,
2013-07-05 06:39:00,70.0,52.0,-100.00,North,358,0.0,0.0,53,0.00,,,0.00,11.000000,,2013-07-05 13:39:00,
2013-07-05 06:49:00,70.0,52.0,-100.00,North,358,0.0,0.0,53,0.00,,,0.00,11.000000,,2013-07-05 13:49:00,
2013-07-05 06:56:00,70.0,52.0,-100.00,North,358,0.0,0.0,53,0.00,,,0.00,11.000000,,2013-07-05 13:56:00,
2013-07-05 07:03:00,71.0,52.0,-100.00,North,357,0.0,0.0,52,0.00,,,0.00,45.000000,,2013-07-05 14:03:00,
2013-07-05 07:39:00,71.0,52.0,-100.00,North,357,0.0,0.0,52,0.00,,,0.00,45.000000,,2013-07-05 14:39:00,
2013-07-05 07:47:00,71.0,52.0,-100.00,North,357,0.0,0.0,52,0.00,,,0.00,45.000000,,2013-07-05 14:47:00,
2013-07-05 07:56:00,71.0,52.0,-100.00,North,357,0.0,0.0,52,0.00,,,0.00,45.000000,,2013-07-05 14:56:00,
2013-07-05 08:25:00,73.0,53.0,-100.00,North,3,0.0,0.0,50,0.00,,,-99.99,56.000000,,2013-07-05 15:25:00,
2013-07-05 08:34:00,73.0,53.0,-100.00,North,3,0.0,0.0,50,0.00,,,-99.99,56.000000,,2013-07-05 15:34:00,
2013-07-05 08:43:00,73.0,53.0,-100.00,North,3,0.0,0.0,50,0.00,,,-99.99,56.000000,,2013-07-05 15:43:00,
2013-07-05 08:53:00,73.0,53.0,-100.00,North,3,0.0,0.0,50,0.00,,,-99.99,56.000000,,2013-07-05 15:53:00,
2013-07-05 09:01:00,73.0,53.0,-100.00,North,3,0.0,0.0,50,0.00,,,-99.99,56.000000,,2013-07-05 16:01:00,
2013-07-05 09:33:00,76.0,54.0,-100.00,North,358,0.0,0.0,47,0.00,,,0.00,119.000000,,2013-07-05 16:33:00,
2013-07-05 09:44:00,76.0,54.0,-100.00,North,358,0.0,0.0,47,0.00,,,0.00,119.000000,,2013-07-05 16:44:00,
2013-07-05 09:53:00,76.0,54.0,-100.00,North,358,0.0,0.0,47,0.00,,,0.00,119.000000,,2013-07-05 16:53:00,
2013-07-05 10:01:00,76.0,54.0,-100.00,North,358,0.0,0.0,47,0.00,,,0.00,119.000000,,2013-07-05 17:01:00,
2013-07-05 10:33:00,87.0,53.0,-100.00,SSE,147,0.0,0.0,31,0.00,,,0.00,500.000000,,2013-07-05 17:33:00,
2013-07-05 10:43:00,87.0,53.0,-100.00,SSE,147,0.0,0.0,31,0.00,,,0.00,500.000000,,2013-07-05 17:43:00,
2013-07-05 10:53:00,87.0,53.0,-100.00,SSE,147,0.0,0.0,31,0.00,,,0.00,500.000000,,2013-07-05 17:53:00,
2013-07-05 11:01:00,87.0,53.0,-100.00,SSE,147,0.0,0.0,31,0.00,,,0.00,500.000000,,2013-07-05 18:01:00,
2013-07-05 11:33:00,88.0,54.0,-100.00,SE,143,0.0,0.0,31,0.00,,,0.00,733.000000,,2013-07-05 18:33:00,
2013-07-05 11:43:00,88.0,54.0,-100.00,SE,143,0.0,0.0,31,0.00,,,0.00,733.000000,,2013-07-05 18:43:00,
2013-07-05 11:53:00,88.0,54.0,-100.00,SE,143,0.0,0.0,31,0.00,,,0.00,733.000000,,2013-07-05 18:53:00,
2013-07-05 12:01:00,88.0,54.0,-100.00,SE,143,0.0,0.0,31,0.00,,,0.00,733.000000,,2013-07-05 19:01:00,
2013-07-05 12:22:00,88.0,54.0,-100.00,NE,35,0.0,0.0,32,0.00,,,0.00,560.000000,,2013-07-05 19:22:00,
2013-07-05 12:34:00,88.0,54.0,-100.00,NE,35,0.0,0.0,32,0.00,,,0.00,560.000000,,2013-07-05 19:34:00,
2013-07-05 12:43:00,88.0,54.0,-100.00,NE,35,0.0,0.0,32,0.00,,,0.00,560.000000,,2013-07-05 19:43:00,
2013-07-05 12:53:00,88.0,54.0,-100.00,NE,35,0.0,0.0,32,0.00,,,0.00,560.000000,,2013-07-05 19:53:00,
2013-07-05 13:01:00,88.0,54.0,-100.00,NE,35,0.0,0.0,32,0.00,,,0.00,560.000000,,2013-07-05 20:01:00,
2013-07-05 13:33:00,87.0,53.0,-100.00,ESE,123,0.0,0.0,31,0.00,,,0.00,694.000000,,2013-07-05 20:33:00,
2013-07-05 13:43:00,87.0,53.0,-100.00,ESE,123,0.0,0.0,31,0.00,,,0.00,694.000000,,2013-07-05 20:43:00,
2013-07-05 13:53:00,87.0,53.0,-100.00,ESE,123,0.0,0.0,31,0.00,,,0.00,694.000000,,2013-07-05 20:53:00,
2013-07-05 14:01:00,87.0,53.0,-100.00,ESE,123,0.0,0.0,31,0.00,,,0.00,694.000000,,2013-07-05 21:01:00,
2013-07-05 14:34:00,84.0,53.0,-100.00,South,177,0.0,0.0,35,0.00,,,0.00,538.000000,,2013-07-05 21:34:00,
2013-07-05 14:43:00,84.0,53.0,-100.00,South,177,0.0,0.0,35,0.00,,,0.00,538.000000,,2013-07-05 21:43:00,
2013-07-05 14:53:00,84.0,53.0,-100.00,South,177,0.0,0.0,35,0.00,,,0.00,538.000000,,2013-07-05 21:53:00,
2013-07-05 15:01:00,84.0,53.0,-100.00,South,177,0.0,0.0,35,0.00,,,0.00,538.000000,,2013-07-05 22:01:00,
2013-07-05 15:34:00,88.0,51.0,-100.00,NE,45,0.0,0.0,28,0.00,,,0.00,376.000000,,2013-07-05 22:34:00,
2013-07-05 15:43:00,88.0,51.0,-100.00,NE,45,0.0,0.0,28,0.00,,,0.00,376.000000,,2013-07-05 22:43:00,
2013-07-05 15:53:00,88.0,51.0,-100.00,NE,45,0.0,0.0,28,0.00,,,0.00,376.000000,,2013-07-05 22:53:00,
2013-07-05 16:02:00,88.0,51.0,-100.00,NE,45,0.0,0.0,28,0.00,,,0.00,376.000000,,2013-07-05 23:02:00,
2013-07-05 16:32:00,88.0,52.0,-100.00,South,174,0.0,0.0,29,0.00,,,0.00,473.000000,,2013-07-05 23:32:00,
2013-07-05 16:43:00,88.0,52.0,-100.00,South,174,0.0,0.0,29,0.00,,,0.00,473.000000,,2013-07-05 23:43:00,
2013-07-05 16:53:00,88.0,52.0,-100.00,South,174,0.0,0.0,29,0.00,,,0.00,473.000000,,2013-07-05 23:53:00,
2013-07-05 17:01:00,88.0,52.0,-100.00,South,174,0.0,0.0,29,0.00,,,0.00,473.000000,,2013-07-06 00:01:00,
2013-07-05 17:33:00,92.0,51.0,-100.00,ESE,121,0.0,0.0,25,0.00,,,0.00,472.000000,,2013-07-06 00:33:00,
2013-07-05 17:42:00,92.0,51.0,-100.00,ESE,121,0.0,0.0,25,0.00,,,0.00,472.000000,,2013-07-06 00:42:00,
2013-07-05 17:53:00,92.0,51.0,-100.00,ESE,121,0.0,0.0,25,0.00,,,0.00,472.000000,,2013-07-06 00:53:00,
2013-07-05 18:01:00,92.0,51.0,-100.00,ESE,121,0.0,0.0,25,0.00,,,0.00,472.000000,,2013-07-06 01:01:00,
2013-07-05 18:22:00,85.0,48.0,-100.00,SSW,198,0.0,0.0,28,0.00,,,0.00,163.000000,,2013-07-06 01:22:00,
2013-07-05 18:33:00,85.0,48.0,-100.00,SSW,198,0.0,0.0,28,0.00,,,0.00,163.000000,,2013-07-06 01:33:00,
2013-07-05 18:43:00,85.0,48.0,-100.00,SSW,198,0.0,0.0,28,0.00,,,0.00,163.000000,,2013-07-06 01:43:00,
2013-07-05 18:53:00,85.0,48.0,-100.00,SSW,198,0.0,0.0,28,0.00,,,0.00,163.000000,,2013-07-06 01:53:00,
2013-07-05 19:02:00,85.0,48.0,-100.00,SSW,198,0.0,0.0,28,0.00,,,0.00,163.000000,,2013-07-06 02:02:00,
2013-07-05 19:34:00,80.0,49.0,-100.00,West,260,0.0,0.0,34,0.00,,,0.00,54.000000,,2013-07-06 02:34:00,
2013-07-05 19:43:00,80.0,49.0,-100.00,West,260,0.0,0.0,34,0.00,,,0.00,54.000000,,2013-07-06 02:43:00,
2013-07-05 19:53:00,80.0,49.0,-100.00,West,260,0.0,0.0,34,0.00,,,0.00,54.000000,,2013-07-06 02:53:00,
2013-07-05 20:02:00,80.0,49.0,-100.00,West,260,0.0,0.0,34,0.00,,,0.00,54.000000,,2013-07-06 03:02:00,
2013-07-05 20:43:00,76.0,51.0,-100.00,NNW,331,0.0,0.0,41,0.00,,,0.00,14.000000,,2013-07-06 03:43:00,
2013-07-05 20:53:00,76.0,51.0,-100.00,NNW,331,0.0,0.0,41,0.00,,,0.00,14.000000,,2013-07-06 03:53:00,
2013-07-05 21:01:00,76.0,51.0,-100.00,NNW,331,0.0,0.0,41,0.00,,,0.00,14.000000,,2013-07-06 04:01:00,
2013-07-05 21:43:00,71.0,48.0,-100.00,NNW,334,0.0,0.0,44,0.00,,,0.00,0.000000,,2013-07-06 04:43:00,
2013-07-05 22:02:00,71.0,48.0,-100.00,NNW,334,0.0,0.0,44,0.00,,,0.00,0.000000,,2013-07-06 05:02:00,
2013-07-05 22:22:00,71.0,48.0,-100.00,North,349,0.0,0.0,44,0.00,,,0.00,0.000000,,2013-07-06 05:22:00,
2013-07-05 22:34:00,71.0,48.0,-100.00,North,349,0.0,0.0,44,0.00,,,0.00,0.000000,,2013-07-06 05:34:00,
2013-07-05 22:43:00,71.0,48.0,-100.00,North,349,0.0,0.0,44,0.00,,,0.00,0.000000,,2013-07-06 05:43:00,
2013-07-05 22:53:00,71.0,48.0,-100.00,North,349,0.0,0.0,44,0.00,,,0.00,0.000000,,2013-07-06 05:53:00,
2013-07-05 23:01:00,71.0,48.0,-100.00,North,349,0.0,0.0,44,0.00,,,0.00,0.000000,,2013-07-06 06:01:00,
2013-07-05 23:34:00,71.0,50.0,-100.00,North,4,0.0,0.0,47,0.00,,,0.00,0.000000,,2013-07-06 06:34:00,
2013-07-05 23:43:00,71.0,50.0,-100.00,North,4,0.0,0.0,47,0.00,,,0.00,0.000000,,2013-07-06 06:43:00,
2013-07-05 23:53:00,71.0,50.0,-100.00,North,4,0.0,0.0,47,0.00,,,0.00,0.000000,,2013-07-06 06:53:00,